User: anonymous   Login
Location: Caltech
(34.1382°N, 118.1253°W)
Time: 21:57:44
(UTC-07:00)
Language:

Cosmos 1758 Rocket - Orbit

View from above orbital plane
View from above orbital plane
View from above satellite
View from above satellite

Ground track
Ground track

The orbit data is extracted from the following two-line orbital elements,

1 16792U 86046B   18114.54149074  .00000081  00000-0  70108-5 0  9998
2 16792  82.4811 269.4242 0023932 351.5649  77.0881 14.83176566721033
Epoch (UTC): 24 April 2018 12:59:44
Eccentricity: 0.0023932
inclination: 82.4811°
perigee height: 602 km
apogee height: 636 km
right ascension of ascending node: 269.4242°
argument of perigee: 351.5649°
revolutions per day: 14.83176566
mean anomaly at epoch: 77.0881°
orbit number at epoch: 72103

The dashed part of the orbit path shows where the satellite is in the earth's shadow,  

DLR